STARLINK-1741, 46567

Orbit data source: Space-Track

STARLINK-1741, 46567 is a payload satellite owned by SpaceX/Seattle (US) in LEO that was launched on Tue, 06 Oct 2020 UTC via an FALCON 9 launch vehicle from the Air Force Eastern Test Range (AFETR). Payload-class satellites include a variety of spacecraft equipped with specific instruments for various scientific and technological missions. These include communications satellites like Starlink; space stations such as the ISS; scientific satellites like the Hubble; Earth observation satellites from companies like Planet Labs, Umbra, and HawkEye 360; GPS; miniature CubeSats for education and research; and military/defense satellites.

Loading next visibility...
Identifier
46567, 2020-070AM
Orbit
LEO
Last TLE update
14 hours ago
Origin
Manufacturer
SpaceX/Seattle
Mission
Operational Commercial Communications
Bus & Motor
STARLINK, Unknown motor
Mass
260 kg wet, ~248 kg dry
Launch date (UTC)
2020-10-06 (5 years ago)
Launch vehicle
FALCON 9
Launch site
Air Force Eastern Test Range (AFETR)
Object type
Payload
Rocket body
Debris
Shape & HBR
Box + 1 Pan, 8.86 m
Radar Cross Section
13.562 m², Large (>1 m²)

Expand to show TLE details & history

TLE from 14 hours ago
0 STARLINK-1741
1 46567U 20070AM  25186.44384380  .00001564  00000-0  12387-3 0  9993
2 46567  53.0537 186.5483 0001240  88.2739 271.8392 15.06405732262524
Epoch: 2025-07-05T10:39Z
TLE epoch observation values (Epoch: 2025-07-05T10:39:08.104Z)
Latitude
-0.00001°
Longitude
103.08272°
Altitude
548.046 km
Speed
7.589 km/s
True Right ascension
12h 26m 11s
True Declination
0° 00' 00"
Sunlit
Object was in daylight at epoch
Visualization orbit readout
Latitude
-22.22785°
Longitude
-61.67464°
Altitude
553.875 km
Speed
7.585 km/s
Apparent Right ascension
00h 56m 01s
Apparent Declination
-30° 50' 53"
Sunlit
Object is in daylight
Visualization observer readout
Local Sidereal Time
12:15:06
Azimuth
314.321° NW
Elevation
-77.699°
Doppler factor
1
Orbital elements
Apogee altitude
548.324 km
Perigee altitude
546.606 km
Semi-major axis
6,925.602 km
Eccentricity
0.00012
Inclination
53.0537°
RAAN
186.5483°
Arg. of periapsis
88.2739°
True anomaly
Unknown
Mean anomaly
271.8392°
Eccentric anomaly
Unknown
Mean motion
3.7658 °/min
Orbital period
95.6 mins
BSTAR
0.00012387
Loading maneuver chart data...
Loading SW <> Apogee altitude chart data...
Loading historical data...
Loading historical data...
Loading historical data...
Loading historical data...
Loading historical data...
Loading historical data...
Loading historical data...

STARLINK-1741 Visibility forecast

Observer location: undefined°, undefined°

Span
Click to sort rows by Start time (UTC) header in descending order
Start Az.
Max El. time (UTC)
Max El. Az.
Max El.
End time (UTC)
End Az.
6 mins2025-07-06 02:45:36.812Z225.712° WSW2025-07-06 02:48:36.812Z97.067° ESE44.676°2025-07-06 02:51:36.812Z51.99° ENE
5 mins2025-07-06 04:26:36.812Z302.072° NW2025-07-06 04:28:36.812Z341.693° N20.463°2025-07-06 04:31:36.812Z29.341° NE
4 mins2025-07-06 07:48:36.812Z353.554° N2025-07-06 07:49:36.812Z12.377° NNE18.747°2025-07-06 07:52:36.812Z64.51° ENE
6 mins2025-07-06 09:27:36.812Z313.249° NW2025-07-06 09:29:36.812Z332.163° NNW43.114°2025-07-06 09:33:36.812Z127.167° SE
|